| time (UTC) | temp C | wind direction | speed KPH | gust KPH | rain 1hr cm | rain 24hr cm | rain mn cm | humidity % | barometer mb |
| 20260508060400 | 8 | 172 | 0.0 | 0.0 | 0.00 | 0.00 | 0.00 | ||
| 20260508054902 | 10 | 172 | 0.0 | 0.0 | 0.00 | 0.00 | 0.00 | ||
| 20260508053403 | 11 | 172 | 0.0 | 0.0 | 0.00 | 0.00 | 0.00 | ||
| 20260508051904 | 11 | 172 | 0.0 | 0.0 | 0.00 | 0.00 | 0.00 | ||
| 20260508050405 | 11 | 172 | 0.0 | 0.0 | 0.00 | 0.00 | 0.00 | ||
| 20260508044906 | 11 | 194 | 0.0 | 0.0 | 0.00 | 0.00 | 0.00 | ||
| 20260508043408 | 10 | 194 | 0.0 | 0.0 | 0.00 | 0.00 | 0.00 | ||
| 20260508041909 | 10 | 194 | 0.0 | 0.0 | 0.00 | 0.00 | 0.00 | ||
| 20260508040410 | 12 | 194 | 0.0 | 0.0 | 0.00 | 0.00 | 0.00 | ||
| 20260508034911 | 12 | 194 | 0.0 | 0.0 | 0.00 | 0.00 | 0.00 | ||
| 20260508033412 | 11 | 194 | 0.0 | 0.0 | 0.00 | 0.00 | 0.00 | ||
| 20260508031913 | 12 | 194 | 0.0 | 0.0 | 0.00 | 0.00 | 0.00 | ||
| 20260508030414 | 12 | 194 | 0.0 | 0.0 | 0.00 | 0.00 | 0.00 | ||
| 20260508024915 | 13 | 194 | 0.0 | 0.0 | 0.00 | 0.00 | 0.00 | ||
| 20260508023416 | 14 | 194 | 0.0 | 0.0 | 0.00 | 0.00 | 0.00 | ||
| 20260508020417 | 15 | 194 | 0.0 | 0.0 | 0.00 | 0.00 | 0.00 | ||
| 20260508014918 | 16 | 194 | 0.0 | 0.0 | 0.00 | 0.00 | 0.00 | ||
| 20260508013418 | 19 | 194 | 0.0 | 0.0 | 0.00 | 0.00 | 0.00 | ||
| 20260508011919 | 21 | 207 | 0.0 | 3.2 | 0.00 | 0.00 | 0.00 | ||
| 20260508010419 | 21 | 245 | 1.6 | 4.8 | 0.00 | 0.00 | 0.00 | ||
| 20260508004919 | 22 | 238 | 6.4 | 9.7 | 0.00 | 0.00 | 0.00 | ||
| 20260508001919 | 23 | 233 | 3.2 | 4.8 | 0.00 | 0.00 | 0.00 | ||
| 20260508000419 | 23 | 267 | 3.2 | 1.6 | 0.00 | 0.00 | 0.00 | ||
| 20260507234919 | 23 | 218 | 8.0 | 0.0 | 0.00 | 0.00 | 0.00 | ||
| 20260507233419 | 24 | 267 | 4.8 | 3.2 | 0.00 | 0.00 | 0.00 | ||
| 20260507231920 | 24 | 238 | 3.2 | 3.2 | 0.00 | 0.00 | 0.00 | ||
| 20260507230420 | 24 | 264 | 6.4 | 6.4 | 0.00 | 0.00 | 0.00 | ||
| 20260507224920 | 25 | 208 | 9.7 | 3.2 | 0.00 | 0.00 | 0.00 | ||
| 20260507223421 | 24 | 253 | 8.0 | 6.4 | 0.00 | 0.00 | 0.00 | ||
| 20260507221921 | 25 | 248 | 3.2 | 14.5 | 0.00 | 0.00 | 0.00 | ||
| 20260507220422 | 24 | 231 | 9.7 | 8.0 | 0.00 | 0.00 | 0.00 | ||
| 20260507214922 | 24 | 321 | 9.7 | 6.4 | 0.00 | 0.00 | 0.00 | ||
| 20260507213423 | 24 | 236 | 9.7 | 8.0 | 0.00 | 0.00 | 0.00 | ||
| 20260507211922 | 23 | 187 | 11.3 | 6.4 | 0.00 | 0.00 | 0.00 | ||
| 20260507210423 | 22 | 243 | 8.0 | 9.7 | 0.00 | 0.00 | 0.00 | ||
| 20260507204923 | 23 | 269 | 8.0 | 1.6 | 0.00 | 0.00 | 0.00 | ||
| 20260507201924 | 22 | 245 | 11.3 | 9.7 | 0.00 | 0.00 | 0.00 | ||
| 20260507200424 | 22 | 228 | 8.0 | 4.8 | 0.00 | 0.00 | 0.00 | ||
| 20260507194925 | 22 | 245 | 4.8 | 8.0 | 0.00 | 0.00 | 0.00 | ||
| 20260507193425 | 21 | 246 | 3.2 | 0.0 | 0.00 | 0.00 | 0.00 | ||
| 20260507190426 | 21 | 298 | 14.5 | 3.2 | 0.00 | 0.00 | 0.00 | ||
| 20260507184927 | 20 | 250 | 1.6 | 1.6 | 0.00 | 0.00 | 0.00 | ||
| 20260507183427 | 20 | 294 | 3.2 | 1.6 | 0.00 | 0.00 | 0.00 | ||
| 20260507181928 | 19 | 232 | 0.0 | 0.0 | 0.00 | 0.00 | 0.00 | ||
| 20260507180428 | 19 | 191 | 3.2 | 9.7 | 0.00 | 0.00 | 0.00 | ||
| 20260507174929 | 20 | 210 | 4.8 | 3.2 | 0.00 | 0.00 | 0.00 | ||
| 20260507173430 | 18 | 245 | 0.0 | 0.0 | 0.00 | 0.00 | 0.00 | ||
| 20260507171930 | 18 | 232 | 1.6 | 0.0 | 0.00 | 0.00 | 0.00 | ||
| 20260507170431 | 18 | 295 | 6.4 | 1.6 | 0.00 | 0.00 | 0.00 | ||
| 20260507164932 | 18 | 222 | 0.0 | 0.0 | 0.00 | 0.00 | 0.00 | ||
| 20260507163433 | 19 | 188 | 3.2 | 4.8 | 0.00 | 0.00 | 0.00 | ||
| 20260507161934 | 18 | 153 | 0.0 | 0.0 | 0.00 | 0.00 | 0.00 | ||
| 20260507160435 | 18 | 107 | 0.0 | 0.0 | 0.00 | 0.00 | 0.00 | ||
| 20260507154936 | 18 | 6 | 0.0 | 0.0 | 0.00 | 0.00 | 0.00 | ||
| 20260507151938 | 17 | 75 | 0.0 | 0.0 | 0.00 | 0.00 | 0.00 | ||
| 20260507150439 | 16 | 101 | 0.0 | 0.0 | 0.00 | 0.00 | 0.00 | ||
| 20260507144941 | 15 | 72 | 1.6 | 3.2 | 0.00 | 0.00 | 0.00 | ||
| 20260507143442 | 13 | 108 | 3.2 | 3.2 | 0.00 | 0.00 | 0.00 | ||
| 20260507141943 | 12 | 68 | 6.4 | 3.2 | 0.00 | 0.00 | 0.00 | ||
| 20260507140445 | 11 | 60 | 4.8 | 3.2 | 0.00 | 0.00 | 0.00 | ||
| 20260507134946 | 10 | 101 | 4.8 | 6.4 | 0.00 | 0.00 | 0.00 | ||
| 20260507133448 | 9 | 103 | 6.4 | 4.8 | 0.00 | 0.00 | 0.00 | ||
| 20260507131949 | 8 | 139 | 4.8 | 1.6 | 0.00 | 0.00 | 0.00 | ||
| 20260507130450 | 7 | 114 | 6.4 | 9.7 | 0.00 | 0.00 | 0.00 | ||
| 20260507124955 | 6 | 101 | 6.4 | 8.0 | 0.00 | 0.00 | 0.00 | ||
| 20260507123454 | 5 | 100 | 6.4 | 4.8 | 0.00 | 0.00 | 0.00 | ||
| 20260507120456 | 3 | 113 | 8.0 | 3.2 | 0.00 | 0.00 | 0.00 | ||
| 20260507114958 | 3 | 128 | 6.4 | 6.4 | 0.00 | 0.00 | 0.00 | ||
| 20260507112001 | 3 | 108 | 6.4 | 8.0 | 0.00 | 0.00 | 0.00 | ||
| 20260507110503 | 3 | 125 | 3.2 | 3.2 | 0.00 | 0.00 | 0.00 | ||
| 20260507105004 | 3 | 128 | 3.2 | 3.2 | 0.00 | 0.00 | 0.00 | ||
| 20260507103506 | 3 | 59 | 8.0 | 9.7 | 0.00 | 0.00 | 0.00 | ||
| 20260507102007 | 3 | 118 | 3.2 | 4.8 | 0.00 | 0.00 | 0.00 | ||
| 20260507100509 | 3 | 111 | 6.4 | 6.4 | 0.00 | 0.00 | 0.00 | ||
| 20260507095010 | 3 | 93 | 4.8 | 4.8 | 0.00 | 0.00 | 0.00 | ||
| 20260507093512 | 3 | 118 | 4.8 | 4.8 | 0.00 | 0.00 | 0.00 | ||
| 20260507092013 | 3 | 131 | 6.4 | 4.8 | 0.00 | 0.00 | 0.00 | ||
| 20260507090515 | 3 | 124 | 6.4 | 6.4 | 0.00 | 0.00 | 0.00 | ||
| 20260507085017 | 3 | 111 | 9.7 | 8.0 | 0.00 | 0.00 | 0.00 | ||
| 20260507083519 | 3 | 111 | 8.0 | 4.8 | 0.00 | 0.00 | 0.00 | ||
| 20260507082019 | 3 | 110 | 9.7 | 8.0 | 0.00 | 0.00 | 0.00 | ||
| 20260507075022 | 3 | 86 | 6.4 | 6.4 | 0.00 | 0.00 | 0.00 | ||
| 20260507073523 | 4 | 70 | 6.4 | 4.8 | 0.00 | 0.00 | 0.00 | ||
| 20260507072024 | 4 | 80 | 6.4 | 11.3 | 0.00 | 0.00 | 0.00 | ||
| 20260507070526 | 5 | 136 | 6.4 | 3.2 | 0.00 | 0.00 | 0.00 | ||
| 20260507065027 | 4 | 118 | 4.8 | 4.8 | 0.00 | 0.00 | 0.00 | ||
| 20260507063528 | 5 | 82 | 6.4 | 6.4 | 0.00 | 0.00 | 0.00 | ||
| 20260507062029 | 5 | 86 | 8.0 | 4.8 | 0.00 | 0.00 | 0.00 |